Time,TemperatureF,DewpointF,PressureIn,WindDirection,WindDirectionDegrees,WindSpeedMPH,WindSpeedGustMPH,Humidity,HourlyPrecipIn,Conditions,Clouds,dailyrainin,SoftwareType,DateUTC
2013-03-09 00:01:00,36.0,35.0,30.22,NNW,338,0.0,-999.0,95,-99.99,,,-99.99,,2013-03-09 08:01:00,
2013-03-09 00:11:00,36.0,35.0,30.22,NNW,338,0.0,-999.0,95,-99.99,,,-99.99,,2013-03-09 08:11:00,
2013-03-09 00:21:00,35.0,34.0,30.22,NNW,338,0.0,-999.0,95,-99.99,,,-99.99,,2013-03-09 08:21:00,
2013-03-09 00:31:00,35.0,34.0,30.23,NNW,338,0.0,-999.0,95,-99.99,,,-99.99,,2013-03-09 08:31:00,
2013-03-09 00:41:00,35.0,34.0,30.23,NNW,338,0.0,-999.0,95,-99.99,,,-99.99,,2013-03-09 08:41:00,
2013-03-09 00:52:00,35.0,34.0,30.23,NNW,338,0.0,-999.0,95,-99.99,,,-99.99,,2013-03-09 08:52:00,
2013-03-09 01:01:00,35.0,34.0,30.24,NNW,338,0.0,-999.0,95,-99.99,,,-99.99,,2013-03-09 09:01:00,
2013-03-09 01:11:00,35.0,34.0,30.24,NNW,338,0.0,-999.0,95,-99.99,,,-99.99,,2013-03-09 09:11:00,
2013-03-09 01:21:00,35.0,34.0,30.25,NNW,338,0.0,-999.0,95,-99.99,,,-99.99,,2013-03-09 09:21:00,
2013-03-09 01:31:00,35.0,34.0,30.24,NNW,338,0.0,-999.0,97,-99.99,,,-99.99,,2013-03-09 09:31:00,
2013-03-09 01:41:00,35.0,34.0,30.24,NNW,338,0.0,-999.0,97,-99.99,,,-99.99,,2013-03-09 09:41:00,
2013-03-09 01:52:00,35.0,34.0,30.24,NNW,338,0.0,-999.0,97,-99.99,,,-99.99,,2013-03-09 09:52:00,
2013-03-09 02:01:00,34.0,33.0,30.25,NNW,338,0.0,-999.0,97,-99.99,,,-99.99,,2013-03-09 10:01:00,
2013-03-09 02:11:00,34.0,33.0,30.25,NNW,338,0.0,-999.0,97,-99.99,,,-99.99,,2013-03-09 10:11:00,
2013-03-09 02:21:00,34.0,33.0,30.25,NNW,338,0.0,-999.0,96,-99.99,,,-99.99,,2013-03-09 10:21:00,
2013-03-09 02:31:00,34.0,33.0,30.26,NNW,338,0.0,-999.0,97,-99.99,,,-99.99,,2013-03-09 10:31:00,
2013-03-09 02:41:00,34.0,33.0,30.26,NNW,338,0.0,-999.0,97,-99.99,,,-99.99,,2013-03-09 10:41:00,
2013-03-09 02:52:00,34.0,33.0,30.26,NNW,338,0.0,-999.0,96,-99.99,,,-99.99,,2013-03-09 10:52:00,
2013-03-09 03:01:00,34.0,33.0,30.27,NNW,338,0.0,-999.0,96,-99.99,,,-99.99,,2013-03-09 11:01:00,
2013-03-09 03:11:00,34.0,33.0,30.27,NNW,338,0.0,-999.0,96,-99.99,,,-99.99,,2013-03-09 11:11:00,
2013-03-09 03:21:00,34.0,33.0,30.27,NNW,338,0.0,-999.0,97,-99.99,,,-99.99,,2013-03-09 11:21:00,
2013-03-09 03:31:00,34.0,33.0,30.27,NNW,338,0.0,-999.0,97,-99.99,,,-99.99,,2013-03-09 11:31:00,
2013-03-09 03:41:00,34.0,33.0,30.27,NNW,338,0.0,-999.0,97,-99.99,,,-99.99,,2013-03-09 11:41:00,
2013-03-09 03:52:00,34.0,33.0,30.28,NNW,338,0.0,-999.0,97,-99.99,,,-99.99,,2013-03-09 11:52:00,
2013-03-09 04:01:00,34.0,33.0,30.29,NNW,338,0.0,-999.0,97,-99.99,,,-99.99,,2013-03-09 12:01:00,
2013-03-09 04:11:00,34.0,33.0,30.29,NNW,338,0.0,-999.0,97,-99.99,,,-99.99,,2013-03-09 12:11:00,
2013-03-09 04:21:00,33.0,32.0,30.28,NNW,338,0.0,-999.0,97,-99.99,,,-99.99,,2013-03-09 12:21:00,
2013-03-09 04:31:00,33.0,32.0,30.29,NNW,338,0.0,-999.0,97,-99.99,,,-99.99,,2013-03-09 12:31:00,
2013-03-09 04:42:00,33.0,32.0,30.29,NNW,338,0.0,-999.0,97,-99.99,,,-99.99,,2013-03-09 12:42:00,
2013-03-09 04:52:00,33.0,32.0,30.29,NNW,338,0.0,-999.0,97,-99.99,,,-99.99,,2013-03-09 12:52:00,
2013-03-09 05:02:00,33.0,32.0,30.30,NNW,338,0.0,-999.0,97,-99.99,,,-99.99,,2013-03-09 13:02:00,
2013-03-09 05:11:00,33.0,32.0,30.30,NNW,338,0.0,-999.0,97,-99.99,,,-99.99,,2013-03-09 13:11:00,
2013-03-09 05:21:00,32.0,31.0,30.30,NNW,338,0.0,-999.0,97,-99.99,,,-99.99,,2013-03-09 13:21:00,
2013-03-09 05:31:00,32.0,31.0,30.30,NNW,338,0.0,-999.0,97,-99.99,,,-99.99,,2013-03-09 13:31:00,
2013-03-09 05:41:00,32.0,31.0,30.30,NNW,338,0.0,-999.0,97,-99.99,,,-99.99,,2013-03-09 13:41:00,
2013-03-09 05:52:00,32.0,31.0,30.30,NNW,338,0.0,-999.0,96,-99.99,,,-99.99,,2013-03-09 13:52:00,
2013-03-09 06:01:00,32.0,31.0,30.31,NNW,338,0.0,-999.0,96,-99.99,,,-99.99,,2013-03-09 14:01:00,
2013-03-09 06:11:00,32.0,31.0,30.31,NNW,338,0.0,-999.0,96,-99.99,,,-99.99,,2013-03-09 14:11:00,
2013-03-09 06:21:00,32.0,31.0,30.32,NNW,338,0.0,-999.0,96,-99.99,,,-99.99,,2013-03-09 14:21:00,
2013-03-09 06:31:00,32.0,31.0,30.32,NNW,338,0.0,-999.0,96,-99.99,,,-99.99,,2013-03-09 14:31:00,
2013-03-09 06:41:00,32.0,31.0,30.32,NNW,338,0.0,-999.0,96,-99.99,,,-99.99,,2013-03-09 14:41:00,
2013-03-09 06:52:00,32.0,31.0,30.32,NNW,338,0.0,-999.0,96,-99.99,,,-99.99,,2013-03-09 14:52:00,
2013-03-09 07:01:00,32.0,31.0,30.33,NNW,338,0.0,-999.0,97,-99.99,,,-99.99,,2013-03-09 15:01:00,
2013-03-09 07:11:00,32.0,31.0,30.33,NNW,338,0.0,-999.0,97,-99.99,,,-99.99,,2013-03-09 15:11:00,
2013-03-09 07:21:00,33.0,32.0,30.35,NNW,338,0.0,-999.0,96,-99.99,,,-99.99,,2013-03-09 15:21:00,
2013-03-09 07:31:00,33.0,32.0,30.35,NNW,338,0.0,-999.0,97,-99.99,,,-99.99,,2013-03-09 15:31:00,
2013-03-09 07:42:00,33.0,32.0,30.35,NNW,338,0.0,-999.0,97,-99.99,,,-99.99,,2013-03-09 15:42:00,
2013-03-09 07:52:00,33.0,32.0,30.37,NNW,338,0.0,-999.0,97,-99.99,,,-99.99,,2013-03-09 15:52:00,
2013-03-09 08:01:00,33.0,32.0,30.38,NNW,338,0.0,-999.0,97,-99.99,,,-99.99,,2013-03-09 16:01:00,
2013-03-09 08:11:00,33.0,32.0,30.38,NNW,338,0.0,-999.0,97,-99.99,,,-99.99,,2013-03-09 16:11:00,
2013-03-09 08:21:00,34.0,33.0,30.38,NNW,338,0.0,-999.0,97,-99.99,,,-99.99,,2013-03-09 16:21:00,
2013-03-09 08:31:00,34.0,33.0,30.39,NNW,338,0.0,-999.0,97,-99.99,,,-99.99,,2013-03-09 16:31:00,
2013-03-09 08:41:00,34.0,33.0,30.39,NNW,338,0.0,-999.0,97,-99.99,,,-99.99,,2013-03-09 16:41:00,
2013-03-09 08:52:00,35.0,34.0,30.40,NNW,338,0.0,-999.0,97,-99.99,,,-99.99,,2013-03-09 16:52:00,
2013-03-09 09:01:00,35.0,34.0,30.40,NNW,338,0.0,-999.0,97,-99.99,,,-99.99,,2013-03-09 17:01:00,
2013-03-09 09:11:00,35.0,34.0,30.40,NNW,338,0.0,-999.0,97,-99.99,,,-99.99,,2013-03-09 17:11:00,
2013-03-09 09:22:00,36.0,35.0,30.40,NNW,338,0.0,-999.0,98,-99.99,,,-99.99,,2013-03-09 17:22:00,
2013-03-09 09:31:00,37.0,36.0,30.38,NNW,338,1.0,-999.0,97,-99.99,,,-99.99,,2013-03-09 17:31:00,
2013-03-09 09:42:00,37.0,36.0,30.38,NNW,338,1.0,-999.0,97,-99.99,,,-99.99,,2013-03-09 17:42:00,
2013-03-09 09:52:00,38.0,38.0,30.40,NNW,338,1.0,-999.0,99,-99.99,,,-99.99,,2013-03-09 17:52:00,
2013-03-09 10:01:00,39.0,39.0,30.41,NNW,338,2.0,-999.0,99,-99.99,,,-99.99,,2013-03-09 18:01:00,
2013-03-09 10:11:00,39.0,39.0,30.41,NNW,338,2.0,-999.0,99,-99.99,,,-99.99,,2013-03-09 18:11:00,
2013-03-09 10:21:00,39.0,39.0,30.41,NNW,338,2.0,-999.0,99,-99.99,,,-99.99,,2013-03-09 18:21:00,
2013-03-09 10:31:00,40.0,40.0,30.40,NNW,338,0.0,-999.0,99,-99.99,,,-99.99,,2013-03-09 18:31:00,
2013-03-09 10:42:00,40.0,40.0,30.40,NNW,338,0.0,-999.0,99,-99.99,,,-99.99,,2013-03-09 18:42:00,
2013-03-09 10:52:00,41.0,40.0,30.41,NW,322,1.0,-999.0,98,-99.99,,,-99.99,,2013-03-09 18:52:00,
2013-03-09 11:01:00,43.0,42.0,30.41,SSE,155,0.0,-999.0,96,-99.99,,,-99.99,,2013-03-09 19:01:00,
2013-03-09 11:11:00,43.0,42.0,30.41,SSE,155,0.0,-999.0,96,-99.99,,,-99.99,,2013-03-09 19:11:00,
2013-03-09 11:21:00,44.0,41.0,30.42,SSE,167,1.0,-999.0,90,-99.99,,,-99.99,,2013-03-09 19:21:00,
2013-03-09 11:31:00,45.0,41.0,30.43,SSE,161,1.0,-999.0,87,-99.99,,,-99.99,,2013-03-09 19:31:00,
2013-03-09 11:41:00,45.0,41.0,30.43,SSE,161,1.0,-999.0,87,-99.99,,,-99.99,,2013-03-09 19:41:00,
2013-03-09 11:52:00,47.0,41.0,30.43,SW,225,1.0,-999.0,81,-99.99,,,-99.99,,2013-03-09 19:52:00,
2013-03-09 12:01:00,47.0,41.0,30.43,SW,214,0.0,-999.0,79,-99.99,,,-99.99,,2013-03-09 20:01:00,
2013-03-09 12:11:00,47.0,41.0,30.43,SW,214,0.0,-999.0,79,-99.99,,,-99.99,,2013-03-09 20:11:00,
2013-03-09 12:21:00,48.0,40.0,30.44,WNW,288,0.0,-999.0,75,-99.99,,,-99.99,,2013-03-09 20:21:00,
2013-03-09 12:31:00,49.0,40.0,30.43,WNW,289,1.0,-999.0,72,-99.99,,,-99.99,,2013-03-09 20:31:00,
2013-03-09 12:41:00,49.0,40.0,30.43,WNW,289,1.0,-999.0,72,-99.99,,,-99.99,,2013-03-09 20:41:00,
2013-03-09 12:52:00,50.0,42.0,30.44,WNW,284,0.0,-999.0,73,-99.99,,,-99.99,,2013-03-09 20:52:00,
2013-03-09 13:01:00,50.0,41.0,30.44,SSE,165,1.0,-999.0,70,-99.99,,,-99.99,,2013-03-09 21:01:00,
2013-03-09 13:11:00,50.0,41.0,30.44,SSE,165,1.0,-999.0,70,-99.99,,,-99.99,,2013-03-09 21:11:00,
2013-03-09 13:21:00,51.0,41.0,30.42,ESE,109,0.0,-999.0,69,-99.99,,,-99.99,,2013-03-09 21:21:00,
2013-03-09 13:31:00,50.0,39.0,30.43,SSE,162,2.0,-999.0,66,-99.99,,,-99.99,,2013-03-09 21:31:00,
2013-03-09 13:41:00,50.0,39.0,30.43,SSE,162,2.0,-999.0,66,-99.99,,,-99.99,,2013-03-09 21:41:00,
2013-03-09 13:52:00,51.0,40.0,30.42,SSW,205,1.0,-999.0,65,-99.99,,,-99.99,,2013-03-09 21:52:00,
2013-03-09 14:01:00,51.0,39.0,30.42,ESE,122,0.0,-999.0,63,-99.99,,,-99.99,,2013-03-09 22:01:00,
2013-03-09 14:11:00,51.0,39.0,30.42,ESE,122,0.0,-999.0,63,-99.99,,,-99.99,,2013-03-09 22:11:00,
2013-03-09 14:21:00,52.0,38.0,30.41,SE,144,1.0,-999.0,58,-99.99,,,-99.99,,2013-03-09 22:21:00,
2013-03-09 14:32:00,52.0,39.0,30.41,WNW,291,2.0,-999.0,62,-99.99,,,-99.99,,2013-03-09 22:32:00,
2013-03-09 14:41:00,52.0,39.0,30.41,WNW,291,2.0,-999.0,62,-99.99,,,-99.99,,2013-03-09 22:41:00,
2013-03-09 14:52:00,53.0,39.0,30.42,ESE,118,1.0,-999.0,60,-99.99,,,-99.99,,2013-03-09 22:52:00,
2013-03-09 15:01:00,53.0,39.0,30.42,ESE,122,2.0,-999.0,59,-99.99,,,-99.99,,2013-03-09 23:01:00,
2013-03-09 15:11:00,53.0,39.0,30.42,ESE,122,2.0,-999.0,59,-99.99,,,-99.99,,2013-03-09 23:11:00,
2013-03-09 15:21:00,53.0,40.0,30.42,SE,133,1.0,-999.0,62,-99.99,,,-99.99,,2013-03-09 23:21:00,
2013-03-09 15:31:00,52.0,38.0,30.42,SE,130,3.0,-999.0,58,-99.99,,,-99.99,,2013-03-09 23:31:00,
2013-03-09 15:41:00,52.0,38.0,30.42,SE,130,3.0,-999.0,58,-99.99,,,-99.99,,2013-03-09 23:41:00,
2013-03-09 15:52:00,52.0,38.0,30.42,SE,129,0.0,-999.0,58,-99.99,,,-99.99,,2013-03-09 23:52:00,
2013-03-09 16:01:00,52.0,37.0,30.41,ESE,117,1.0,-999.0,56,-99.99,,,-99.99,,2013-03-10 00:01:00,
2013-03-09 16:11:00,52.0,37.0,30.41,ESE,117,1.0,-999.0,56,-99.99,,,-99.99,,2013-03-10 00:11:00,
2013-03-09 16:21:00,52.0,36.0,30.42,East,95,5.0,-999.0,55,-99.99,,,-99.99,,2013-03-10 00:21:00,
2013-03-09 16:31:00,52.0,35.0,30.41,SE,134,2.0,-999.0,52,-99.99,,,-99.99,,2013-03-10 00:31:00,
2013-03-09 16:42:00,52.0,35.0,30.41,SE,134,2.0,-999.0,52,-99.99,,,-99.99,,2013-03-10 00:42:00,
2013-03-09 16:52:00,52.0,37.0,30.42,SE,134,0.0,-999.0,57,-99.99,,,-99.99,,2013-03-10 00:52:00,
2013-03-09 17:01:00,52.0,37.0,30.42,SSE,163,0.0,-999.0,57,-99.99,,,-99.99,,2013-03-10 01:01:00,
2013-03-09 17:11:00,52.0,37.0,30.42,SSE,163,0.0,-999.0,57,-99.99,,,-99.99,,2013-03-10 01:11:00,
2013-03-09 17:21:00,52.0,39.0,30.43,SW,223,1.0,-999.0,60,-99.99,,,-99.99,,2013-03-10 01:21:00,
2013-03-09 17:31:00,51.0,39.0,30.44,SW,219,1.0,-999.0,63,-99.99,,,-99.99,,2013-03-10 01:31:00,
2013-03-09 17:41:00,51.0,39.0,30.44,SW,219,1.0,-999.0,63,-99.99,,,-99.99,,2013-03-10 01:41:00,
2013-03-09 17:52:00,50.0,40.0,30.44,SW,222,1.0,-999.0,68,-99.99,,,-99.99,,2013-03-10 01:52:00,
2013-03-09 18:01:00,48.0,40.0,30.43,SW,223,1.0,-999.0,74,-99.99,,,-99.99,,2013-03-10 02:01:00,
2013-03-09 18:11:00,48.0,40.0,30.43,SW,223,1.0,-999.0,74,-99.99,,,-99.99,,2013-03-10 02:11:00,
2013-03-09 18:22:00,47.0,39.0,30.43,SW,223,1.0,-999.0,75,-99.99,,,-99.99,,2013-03-10 02:22:00,
2013-03-09 18:31:00,46.0,39.0,30.45,SW,223,1.0,-999.0,76,-99.99,,,-99.99,,2013-03-10 02:31:00,
2013-03-09 18:41:00,46.0,39.0,30.45,SW,223,1.0,-999.0,76,-99.99,,,-99.99,,2013-03-10 02:41:00,
2013-03-09 18:52:00,45.0,39.0,30.44,SW,223,1.0,-999.0,78,-99.99,,,-99.99,,2013-03-10 02:52:00,
2013-03-09 19:01:00,44.0,38.0,30.45,SW,223,2.0,-999.0,80,-99.99,,,-99.99,,2013-03-10 03:01:00,
2013-03-09 19:11:00,44.0,39.0,30.45,SW,223,0.0,-999.0,81,-99.99,,,-99.99,,2013-03-10 03:11:00,
2013-03-09 19:21:00,44.0,39.0,30.45,SW,223,0.0,-999.0,81,-99.99,,,-99.99,,2013-03-10 03:21:00,
2013-03-09 19:31:00,43.0,38.0,30.45,SW,223,2.0,-999.0,81,-99.99,,,-99.99,,2013-03-10 03:31:00,
2013-03-09 19:41:00,43.0,38.0,30.45,SW,223,2.0,-999.0,81,-99.99,,,-99.99,,2013-03-10 03:41:00,
2013-03-09 19:52:00,43.0,38.0,30.46,SW,223,0.0,-999.0,82,-99.99,,,-99.99,,2013-03-10 03:52:00,
2013-03-09 20:01:00,43.0,38.0,30.46,SW,223,0.0,-999.0,83,-99.99,,,-99.99,,2013-03-10 04:01:00,
2013-03-09 20:11:00,43.0,38.0,30.46,SW,223,0.0,-999.0,83,-99.99,,,-99.99,,2013-03-10 04:11:00,
2013-03-09 20:21:00,42.0,38.0,30.46,SW,223,0.0,-999.0,84,-99.99,,,-99.99,,2013-03-10 04:21:00,
2013-03-09 20:31:00,42.0,38.0,30.46,SW,223,0.0,-999.0,86,-99.99,,,-99.99,,2013-03-10 04:31:00,
2013-03-09 20:41:00,42.0,38.0,30.46,SW,223,0.0,-999.0,86,-99.99,,,-99.99,,2013-03-10 04:41:00,
2013-03-09 20:52:00,41.0,37.0,30.47,SW,223,0.0,-999.0,86,-99.99,,,-99.99,,2013-03-10 04:52:00,
2013-03-09 21:01:00,41.0,37.0,30.47,SW,223,0.0,-999.0,87,-99.99,,,-99.99,,2013-03-10 05:01:00,
2013-03-09 21:11:00,41.0,37.0,30.47,SW,223,0.0,-999.0,87,-99.99,,,-99.99,,2013-03-10 05:11:00,
2013-03-09 21:21:00,40.0,36.0,30.47,SW,223,0.0,-999.0,87,-99.99,,,-99.99,,2013-03-10 05:21:00,
2013-03-09 21:31:00,40.0,36.0,30.46,SW,223,0.0,-999.0,87,-99.99,,,-99.99,,2013-03-10 05:31:00,
2013-03-09 21:42:00,40.0,36.0,30.46,SW,223,0.0,-999.0,87,-99.99,,,-99.99,,2013-03-10 05:42:00,
2013-03-09 21:52:00,40.0,36.0,30.46,SW,223,0.0,-999.0,87,-99.99,,,-99.99,,2013-03-10 05:52:00,
2013-03-09 22:01:00,39.0,36.0,30.47,SW,223,0.0,-999.0,88,-99.99,,,-99.99,,2013-03-10 06:01:00,
2013-03-09 22:11:00,39.0,36.0,30.47,SW,223,0.0,-999.0,88,-99.99,,,-99.99,,2013-03-10 06:11:00,
2013-03-09 22:21:00,39.0,36.0,30.47,SW,223,2.0,-999.0,89,-99.99,,,-99.99,,2013-03-10 06:21:00,
2013-03-09 22:31:00,39.0,37.0,30.47,SW,223,0.0,-999.0,91,-99.99,,,-99.99,,2013-03-10 06:31:00,
2013-03-09 22:41:00,38.0,36.0,30.48,SW,223,0.0,-999.0,91,-99.99,,,-99.99,,2013-03-10 06:41:00,
2013-03-09 22:52:00,38.0,36.0,30.48,SW,223,0.0,-999.0,91,-99.99,,,-99.99,,2013-03-10 06:52:00,
2013-03-09 23:01:00,38.0,36.0,30.47,SW,223,0.0,-999.0,92,-99.99,,,-99.99,,2013-03-10 07:01:00,
2013-03-09 23:11:00,38.0,36.0,30.47,SW,223,0.0,-999.0,92,-99.99,,,-99.99,,2013-03-10 07:11:00,
2013-03-09 23:21:00,38.0,36.0,30.47,SW,223,0.0,-999.0,92,-99.99,,,-99.99,,2013-03-10 07:21:00,
2013-03-09 23:31:00,38.0,36.0,30.47,SW,223,0.0,-999.0,92,-99.99,,,-99.99,,2013-03-10 07:31:00,
2013-03-09 23:41:00,37.0,35.0,30.47,SW,223,0.0,-999.0,92,-99.99,,,-99.99,,2013-03-10 07:41:00,
2013-03-09 23:52:00,37.0,35.0,30.47,SW,223,0.0,-999.0,92,-99.99,,,-99.99,,2013-03-10 07:52:00,